Location: Unspecified
(42.3650°N, 71.1030°W)
Time: 13:35:12
(UTC+00:00)

Explorer 11/Cluster Stage 4 - Pass Details

Date: 24 June 2024
Orbit: 465 x 1215 km, 28.8° (Epoch: 19 July)

Event Time Altitude Azimuth Distance (km) Brightness Sun altitude
Rises 22:57:11 0° 212° (SSW) 3,922 10.3 13.7°
Reaches altitude 10° 23:01:01 10° 194° (SSW) 3,060 9.6 13.1°
Maximum altitude 23:05:39 17° 157° (SSE) 2,634 8.9 12.3°
Drops below altitude 10° 23:10:23 10° 120° (ESE) 3,158 9.1 11.5°
Sets 23:14:26 0° 102° (ESE) 4,103 9.6 10.8°
